Wind_Speed
30 30 31 33 32 32 31 29 27 26 25 24 24 22 20 20 20 20 20 19 19 19 20 22 24 25 26 28 29 29 29 29 29 29 28 28 29 29
31 31 32 32 32 31 30 29 27 26 25 24 23 22 21 20 19 19 19 19 19 19 20 21 23 25 26 27 28 29 29 29 29 29 28 28 28 29
31 31 32 32 31 30 29 27 27 25 24 22 21 21 21 20 19 19 19 19 20 20 20 21 23 25 26 27 28 28 29 29 29 29 29 29 29 30
27 28 28 29 29 28 26 25 25 23 22 21 20 20 21 21 19 19 19 20 21 21 21 22 23 23 25 26 28 29 29 29 29 29 29 29 30 31
22 23 24 24 24 24 24 24 23 22 21 20 19 20 21 21 20 19 19 20 21 22 23 23 23 23 24 24 25 26 27 28 28 28 27 27 28 29
17 18 19 20 20 21 22 21 21 20 20 20 20 20 21 21 21 20 20 20 21 22 23 24 25 24 25 24 24 24 24 24 24 24 25 25 26 28
17 18 18 19 19 20 20 20 20 20 20 20 20 20 21 21 21 21 20 20 20 21 22 23 25 25 26 26 25 24 24 24 24 25 25 26 27 28
20 20 19 19 20 20 20 20 20 20 21 20 20 20 20 21 21 21 20 19 19 20 21 21 21 23 24 26 26 26 27 27 28 28 29 30 30 32
21 21 21 20 20 20 20 19 19 20 20 20 21 21 21 21 21 21 20 18 17 17 17 17 19 21 23 25 27 28 29 30 31 32 33 33 34 35
21 21 21 21 21 20 20 19 18 18 18 19 19 20 20 20 20 21 20 19 17 16 16 17 17 18 20 22 25 27 29 30 32 33 34 35 35 36
20 20 21 21 20 20 19 18 17 16 16 16 17 18 19 19 19 20 20 19 18 17 17 17 18 18 20 21 23 25 27 29 31 32 34 36 37 38
18 19 19 20 20 20 19 17 16 15 14 14 14 14 15 16 17 18 19 18 18 18 19 19 20 21 22 23 24 26 28 30 31 33 35 36 37 38
16 17 18 18 18 18 18 17 16 15 14 13 12 11 12 12 13 14 15 15 16 16 17 17 18 19 21 22 23 25 27 29 31 32 34 36 38 39
13 14 16 17 17 17 17 16 16 15 14 12 10 10 9 9 9 9 10 11 11 12 13 14 15 17 19 20 22 25 27 29 32 34 35 37 39 41
8 10 12 14 15 15 15 15 14 13 12 11 9 8 7 6 6 6 6 6 7 9 10 12 13 15 17 20 22 25 28 30 33 35 36 37 39 40
3 4 6 9 12 13 14 13 13 12 11 10 8 7 6 5 4 3 3 4 5 6 8 10 12 14 17 19 22 24 27 29 31 32 34 34 35 36
5 2 3 5 8 10 11 11 11 10 10 9 8 7 6 4 3 1 1 2 3 5 6 8 11 14 17 19 22 24 25 27 28 29 29 30 30 31
14 11 9 8 9 10 10 10 11 11 10 9 8 8 6 4 3 2 2 3 4 5 8 10 13 16 19 22 25 26 27 28 28 28 28 27 27 28
21 19 17 15 14 14 13 13 13 12 11 11 9 8 7 6 6 5 5 6 6 8 10 13 16 19 22 25 27 28 29 29 29 28 28 27 26 26
26 24 23 21 20 18 17 16 15 14 13 12 11 10 9 9 8 7 7 8 9 10 12 15 17 20 23 25 27 29 30 30 30 29 28 27 26 25
26 26 25 24 22 21 20 19 17 16 15 14 13 12 11 10 10 9 9 9 10 11 13 15 18 20 22 24 26 28 29 30 30 30 30 29 29 28
24 23 23 22 22 21 20 19 18 17 16 15 14 13 12 10 10 9 9 10 11 12 13 15 17 19 21 23 24 26 27 29 30 30 31 31 31 30
20 20 20 20 19 19 18 17 16 16 15 13 12 11 10 9 9 9 9 10 11 12 13 15 17 18 20 22 23 24 26 27 28 29 30 31 31 31
Wind_Direction
261 257 255 250 247 246 246 249 254 259 262 264 266 267 265 265 267 270 270 270 269 265 259 254 250 248 247 247 248 248 248 249 250 253 255 257 258 259
258 255 250 246 245 245 246 249 253 256 258 259 259 261 261 263 264 266 267 266 266 265 260 255 252 250 248 248 248 248 249 250 251 253 255 257 258 258
253 249 246 244 243 242 244 248 251 254 255 255 253 254 256 259 261 263 265 265 265 265 262 258 256 253 250 249 249 249 251 252 253 254 256 258 258 258
248 247 244 243 242 241 243 247 250 251 253 253 250 249 251 255 259 261 264 264 264 264 264 263 260 257 254 252 252 252 253 255 255 257 259 260 260 260
244 243 242 242 242 244 247 249 250 252 252 252 251 248 248 251 255 257 263 263 262 261 262 262 260 258 256 255 255 256 257 257 258 260 261 261 261 261
244 247 247 247 248 249 250 251 253 255 254 253 252 249 247 248 251 254 260 264 264 262 261 258 256 256 253 251 254 257 260 261 261 262 263 264 263 263
261 260 258 254 254 254 254 255 257 257 256 254 253 250 248 247 249 253 260 264 265 262 261 258 255 255 254 251 252 255 257 259 263 265 267 269 268 267
264 263 261 259 259 258 258 258 258 258 257 256 254 251 248 247 248 252 257 262 263 262 260 260 259 255 254 253 254 255 257 260 263 266 269 271 270 270
262 259 257 256 256 257 258 258 259 260 258 256 254 252 250 248 248 250 254 258 263 264 262 262 261 259 259 258 258 259 260 263 265 267 269 270 270 271
260 256 254 252 251 252 253 254 256 256 256 255 253 251 250 249 249 251 251 254 258 261 263 266 269 267 266 265 265 266 267 267 267 268 269 270 270 270
258 254 251 250 249 248 249 249 251 252 254 254 253 251 250 249 248 249 250 252 254 258 260 264 268 270 270 270 272 273 274 274 274 274 274 274 273 272
257 252 249 246 247 246 247 247 246 247 248 249 248 248 247 247 247 248 249 252 255 259 263 267 271 274 276 277 279 279 280 280 280 279 278 277 276 275
257 252 247 243 243 243 242 242 241 241 240 241 243 243 241 243 242 245 247 251 257 262 267 272 276 280 282 285 286 286 286 285 285 284 282 281 279 278
259 252 246 242 239 240 237 237 235 235 234 233 232 234 234 236 238 239 245 252 260 267 273 279 284 288 291 293 294 293 292 291 290 288 287 285 283 281
267 252 244 238 232 229 229 229 229 228 228 228 223 220 220 221 221 227 240 256 268 276 284 291 296 300 304 305 304 303 301 299 297 296 294 292 289 287
294 246 234 227 218 214 215 216 217 218 217 212 209 206 199 197 203 218 242 267 284 294 301 309 315 318 319 319 317 315 313 310 308 306 304 301 297 294
48 96 162 178 186 192 196 198 198 196 192 188 185 179 176 172 175 197 264 308 323 331 340 343 343 345 345 342 338 334 330 327 323 320 316 312 308 304
66 79 99 119 134 148 156 161 165 165 162 161 159 157 155 150 139 122 82 52 36 23 15 13 11 6 0 357 353 350 347 343 339 335 330 326 321 317
69 76 84 96 107 118 126 133 139 140 142 144 143 139 132 123 113 100 82 64 49 38 31 26 20 14 11 8 5 2 359 357 354 350 346 342 337 333
69 74 81 88 95 103 110 116 120 122 124 125 123 119 113 107 99 87 75 65 53 42 34 28 23 19 16 15 13 12 10 7 5 3 1 359 356 353
68 72 77 81 87 93 98 102 105 107 109 108 107 105 101 97 90 80 70 61 50 42 36 31 25 21 18 17 17 16 16 15 15 14 13 12 10 9
67 70 74 78 82 86 89 92 95 97 98 99 98 97 93 87 80 71 63 55 46 40 34 29 24 21 19 18 18 18 18 19 20 20 20 20 19 17
65 68 72 75 78 81 84 87 90 91 92 93 92 89 83 76 68 60 53 46 38 33 27 23 19 17 16 15 15 15 16 17 19 21 22 22 21 20
Height
5815 5816 5817 5819 5821 5823 5825 5827 5829 5829 5830 5829 5829 5829 5829 5829 5829 5829 5828 5828 5828 5827 5828 5828 5829 5830 5832 5833 5834 5836 5837 5838 5839 5840 5840 5841 5841 5842
5807 5808 5809 5810 5812 5815 5817 5819 5821 5822 5822 5822 5823 5823 5823 5823 5823 5823 5823 5823 5823 5823 5823 5823 5824 5825 5826 5827 5828 5829 5831 5832 5832 5833 5833 5833 5834 5834
5798 5799 5801 5802 5804 5807 5809 5811 5813 5814 5815 5815 5817 5817 5817 5817 5817 5817 5817 5817 5818 5818 5818 5818 5818 5819 5820 5821 5822 5824 5825 5825 5826 5826 5826 5826 5826 5826
5791 5792 5793 5795 5797 5799 5801 5803 5805 5806 5807 5808 5810 5811 5811 5811 5812 5812 5811 5812 5812 5813 5813 5813 5813 5814 5814 5815 5816 5817 5818 5819 5819 5819 5819 5819 5819 5819
5784 5785 5787 5788 5790 5792 5794 5796 5797 5799 5800 5801 5803 5804 5805 5806 5806 5806 5806 5806 5807 5807 5807 5808 5808 5808 5809 5810 5810 5811 5812 5813 5813 5813 5812 5812 5811 5811
5779 5780 5781 5783 5784 5786 5787 5789 5790 5792 5793 5794 5796 5798 5799 5800 5801 5801 5801 5801 5801 5801 5802 5802 5802 5803 5803 5804 5805 5805 5806 5806 5806 5806 5805 5805 5804 5804
5773 5775 5776 5777 5779 5780 5781 5783 5784 5785 5786 5788 5789 5791 5792 5794 5795 5795 5796 5796 5796 5796 5796 5796 5797 5797 5797 5798 5799 5799 5800 5800 5800 5800 5799 5798 5798 5797
5768 5769 5770 5772 5773 5774 5775 5776 5778 5779 5780 5782 5783 5785 5786 5787 5789 5790 5791 5791 5791 5792 5791 5791 5791 5792 5792 5793 5793 5793 5793 5793 5793 5792 5792 5791 5790 5789
5763 5763 5764 5765 5767 5768 5769 5770 5772 5773 5775 5776 5777 5778 5780 5781 5783 5784 5785 5786 5786 5786 5787 5787 5786 5786 5786 5787 5787 5787 5787 5786 5786 5785 5784 5783 5782 5780
5756 5757 5758 5759 5760 5762 5763 5765 5766 5768 5769 5770 5772 5773 5774 5776 5777 5779 5780 5781 5782 5782 5783 5783 5782 5782 5782 5781 5781 5780 5779 5778 5777 5776 5775 5774 5772 5771
5749 5750 5752 5753 5755 5756 5758 5760 5761 5763 5764 5766 5767 5768 5769 5770 5772 5774 5775 5776 5777 5778 5778 5779 5778 5778 5777 5776 5776 5774 5773 5772 5770 5768 5766 5765 5763 5761
5743 5744 5745 5747 5749 5751 5753 5755 5757 5759 5760 5762 5763 5763 5765 5766 5767 5769 5770 5772 5772 5773 5774 5774 5774 5773 5773 5771 5770 5769 5767 5764 5762 5760 5758 5755 5753 5750
5737 5738 5739 5741 5743 5746 5748 5751 5753 5755 5757 5758 5759 5761 5762 5763 5764 5765 5766 5768 5769 5769 5770 5770 5769 5768 5767 5766 5764 5762 5759 5757 5754 5751 5748 5745 5742 5739
5731 5732 5734 5736 5738 5741 5743 5746 5749 5751 5753 5755 5757 5758 5759 5760 5761 5762 5764 5764 5765 5766 5766 5766 5765 5764 5763 5761 5758 5756 5753 5749 5745 5741 5738 5734 5730 5727
5727 5727 5729 5731 5733 5736 5739 5742 5745 5748 5750 5753 5755 5756 5758 5759 5760 5761 5762 5763 5763 5763 5763 5763 5762 5761 5759 5756 5753 5749 5745 5740 5736 5731 5727 5722 5718 5714
5724 5724 5724 5726 5729 5732 5735 5739 5742 5746 5748 5751 5753 5755 5757 5758 5760 5761 5761 5762 5762 5762 5761 5760 5759 5757 5755 5751 5747 5742 5737 5732 5727 5721 5716 5711 5706 5702
5723 5723 5723 5725 5727 5730 5734 5737 5741 5744 5747 5750 5753 5755 5757 5758 5759 5760 5761 5761 5761 5760 5759 5758 5756 5753 5750 5746 5742 5736 5731 5725 5719 5713 5707 5702 5697 5691
5726 5725 5725 5727 5729 5732 5735 5738 5741 5745 5748 5750 5753 5755 5757 5758 5759 5760 5760 5760 5760 5759 5758 5756 5754 5751 5747 5742 5737 5731 5725 5719 5713 5706 5700 5695 5689 5684
5732 5731 5731 5732 5733 5736 5738 5741 5744 5747 5749 5752 5754 5756 5758 5759 5760 5760 5760 5760 5759 5758 5757 5755 5752 5749 5745 5740 5734 5728 5722 5715 5709 5702 5696 5690 5684 5678
5742 5740 5739 5739 5740 5742 5743 5746 5748 5750 5752 5754 5756 5758 5759 5760 5761 5761 5761 5761 5760 5758 5757 5754 5751 5747 5743 5739 5733 5727 5721 5714 5708 5701 5694 5688 5681 5675
5751 5750 5749 5748 5749 5749 5750 5752 5753 5755 5756 5758 5759 5760 5761 5762 5762 5762 5762 5761 5760 5759 5757 5754 5751 5747 5743 5739 5734 5728 5722 5715 5709 5702 5695 5688 5681 5675
5760 5759 5758 5757 5757 5757 5758 5758 5759 5760 5761 5762 5763 5763 5764 5764 5764 5764 5763 5762 5761 5759 5756 5754 5751 5748 5744 5739 5734 5729 5723 5717 5710 5704 5697 5690 5684 5677
5767 5766 5765 5764 5764 5764 5764 5764 5764 5765 5765 5765 5766 5766 5766 5766 5766 5765 5764 5762 5761 5759 5757 5754 5751 5748 5744 5740 5735 5730 5725 5719 5713 5706 5700 5693 5687 5680